sat.trackr.live / text

‹ back to catalog

O3B FM16

NORAD 43232 · 2018-024B

PAYLOAD ACTIVE UNKNOWN

§ Identity

Operator
Country
O3B
Launch date
2018-03-09
Launch site
FRGUI
Launch vehicle
Mass (kg)
RCS (m²)

Purposes: comms

External: N2YO · Heavens-Above · Gunter

§ Orbital elements

Epoch: 2026-05-24T22:59:18.386016Z

Period
287.93 min
Inclination
0.0499°
Eccentricity
0.0002675
Mean motion
5.00115996 rev/d
Perigee alt
8,062.0 km
Apogee alt
8,069.7 km
Semi-major
14,444.0 km
B*
0.0000e+0
RAAN
7.9772°
Arg perigee
51.2930°
Mean anomaly
300.7555°
Rev number
14,978

§ Raw data

O3B FM161 43232U 18024B   26144.95785169 -.00000024  00000+0  00000+0 0  99912 43232   0.0499   7.9772 0002675  51.2930 300.7555  5.00115996149780

JSON: /api/v1/satellites/43232 · /tle

For live sub-satellite position, see the globe view (requires WebGL).

§ Visibility from observer

Set your observer location to see the next 7 days of passes ≥ 10°. The values pass through the URL so the page stays shareable.

No JS? Fill the form by hand. The geolocation button needs JavaScript.